Radiation Dose at Monitoring Post of Fukushima Daini Nuclear Power Station
Date,Time,MP-1(microSv/h),MP-2(microSv/h),MP-3(microSv/h),MP-4(microSv/h),MP-5(microSv/h),MP-6(microSv/h),MP-7(microSv/h),Wind Direction,Wind Velocity(m/s),Rain
2016/01/22,00:00,0.457,0.268,0.482,0.438,0.419,0.219,0.191,north,2.0,No
2016/01/22,00:10,0.457,0.268,0.480,0.437,0.417,0.220,0.192,north-northeast,2.1,No
2016/01/22,00:20,0.456,0.269,0.481,0.437,0.417,0.219,0.193,north,2.2,No
2016/01/22,00:30,0.455,0.268,0.483,0.438,0.417,0.220,0.191,north,1.9,No
2016/01/22,00:40,0.457,0.267,0.481,0.439,0.416,0.219,0.191,north,3.1,No
2016/01/22,00:50,0.458,0.269,0.480,0.436,0.416,0.219,0.192,north,3.2,No
2016/01/22,01:00,0.459,0.268,0.480,0.438,0.417,0.220,0.192,north,3.6,No
2016/01/22,01:10,0.457,0.268,0.483,0.439,0.416,0.220,0.191,north-northwest,3.4,No
2016/01/22,01:20,0.457,0.268,0.482,0.439,0.417,0.220,0.191,north,3.7,No
2016/01/22,01:30,0.459,0.268,0.483,0.438,0.418,0.220,0.192,north,5.4,No
2016/01/22,01:40,0.458,0.269,0.482,0.437,0.419,0.219,0.193,north,4.9,No
2016/01/22,01:50,0.456,0.268,0.481,0.438,0.418,0.220,0.190,north,4.1,No
2016/01/22,02:00,0.457,0.268,0.482,0.438,0.416,0.220,0.191,north,2.2,No
2016/01/22,02:10,0.458,0.268,0.480,0.440,0.418,0.218,0.191,north,2.2,No
2016/01/22,02:20,0.458,0.269,0.480,0.439,0.419,0.219,0.191,north-northwest,2.4,No
2016/01/22,02:30,0.457,0.269,0.482,0.436,0.416,0.220,0.191,north-northwest,3.5,No
2016/01/22,02:40,0.456,0.268,0.483,0.438,0.415,0.220,0.191,north,3.6,No
2016/01/22,02:50,0.458,0.268,0.483,0.439,0.417,0.219,0.192,north,4.0,No
2016/01/22,03:00,0.457,0.268,0.482,0.438,0.414,0.218,0.192,north,3.7,No
2016/01/22,03:10,0.456,0.268,0.481,0.438,0.417,0.220,0.191,north,4.9,No
2016/01/22,03:20,0.456,0.268,0.482,0.438,0.418,0.220,0.191,north,5.3,No
2016/01/22,03:30,0.457,0.269,0.482,0.438,0.418,0.219,0.191,north,4.7,No
2016/01/22,03:40,0.458,0.268,0.482,0.438,0.414,0.220,0.192,north,5.1,No
2016/01/22,03:50,0.457,0.266,0.481,0.436,0.417,0.220,0.192,north,4.6,No
2016/01/22,04:00,0.457,0.267,0.482,0.438,0.417,0.219,0.191,northwest,4.5,No
2016/01/22,04:10,0.456,0.267,0.482,0.438,0.417,0.220,0.192,north-northwest,4.8,No
2016/01/22,04:20,0.457,0.268,0.482,0.437,0.416,0.220,0.191,north-northwest,5.6,No
2016/01/22,04:30,0.456,0.268,0.481,0.436,0.414,0.219,0.191,north-northwest,5.6,No
2016/01/22,04:40,0.457,0.268,0.483,0.436,0.420,0.220,0.191,north-northwest,6.3,No
2016/01/22,04:50,0.456,0.268,0.482,0.436,0.417,0.219,0.192,north-northwest,4.9,No
2016/01/22,05:00,0.458,0.267,0.481,0.437,0.416,0.220,0.190,northwest,2.8,No
2016/01/22,05:10,0.455,0.269,0.481,0.437,0.417,0.219,0.192,north-northwest,2.3,No
2016/01/22,05:20,0.458,0.268,0.481,0.436,0.416,0.219,0.190,north-northeast,2.5,No
2016/01/22,05:30,0.457,0.269,0.483,0.436,0.418,0.220,0.191,north-northeast,2.6,No
2016/01/22,05:40,0.456,0.268,0.484,0.437,0.418,0.219,0.190,north,3.3,No
2016/01/22,05:50,0.455,0.268,0.480,0.438,0.418,0.220,0.191,north,3.9,No
2016/01/22,06:00,0.456,0.267,0.481,0.438,0.416,0.219,0.192,north,2.6,No
2016/01/22,06:10,0.458,0.268,0.482,0.437,0.417,0.220,0.192,north,2.7,No
2016/01/22,06:20,0.456,0.268,0.482,0.438,0.417,0.219,0.191,north-northwest,3.0,No
2016/01/22,06:30,0.458,0.269,0.481,0.438,0.418,0.219,0.192,north,2.4,No
2016/01/22,06:40,0.458,0.268,0.481,0.438,0.418,0.218,0.191,north-northwest,2.2,No
2016/01/22,06:50,0.458,0.268,0.481,0.437,0.416,0.220,0.191,north-northwest,2.4,No
2016/01/22,07:00,0.457,0.268,0.480,0.437,0.416,0.219,0.191,north-northeast,0.7,No
2016/01/22,07:10,0.457,0.268,0.482,0.438,0.417,0.219,0.191,north-northeast,2.2,No
2016/01/22,07:20,0.456,0.268,0.481,0.438,0.416,0.219,0.192,north-northeast,2.0,No
2016/01/22,07:30,0.457,0.268,0.482,0.439,0.417,0.220,0.191,north-northeast,3.4,No
2016/01/22,07:40,0.455,0.266,0.482,0.436,0.416,0.219,0.191,north,2.8,No
2016/01/22,07:50,0.455,0.268,0.483,0.436,0.416,0.220,0.192,north,4.0,No
2016/01/22,08:00,0.457,0.267,0.483,0.437,0.416,0.219,0.192,north-northwest,2.7,No
2016/01/22,08:10,0.456,0.268,0.481,0.437,0.416,0.218,0.191,north-northwest,1.7,No
2016/01/22,08:20,0.457,0.268,0.482,0.437,0.416,0.219,0.190,north-northwest,1.4,No
2016/01/22,08:30,0.456,0.266,0.481,0.436,0.416,0.218,0.191,north,2.8,No
2016/01/22,08:40,0.456,0.266,0.480,0.435,0.418,0.219,0.191,north-northwest,2.4,No
2016/01/22,08:50,0.456,0.267,0.479,0.435,0.416,0.218,0.190,north-northwest,2.7,No
2016/01/22,09:00,0.456,0.267,0.481,0.436,0.416,0.218,0.191,north,3.2,No
2016/01/22,09:10,0.457,0.269,0.480,0.436,0.418,0.218,0.191,north,4.3,No
2016/01/22,09:20,0.457,0.267,0.480,0.436,0.416,0.218,0.191,northwest,1.6,No
2016/01/22,09:30,0.456,0.267,0.481,0.434,0.415,0.218,0.192,north,1.5,No
2016/01/22,09:40,0.457,0.266,0.481,0.437,0.416,0.219,0.190,north-northwest,3.5,No
2016/01/22,09:50,0.456,0.266,0.479,0.435,0.418,0.219,0.190,north-northwest,3.9,No
2016/01/22,10:00,0.456,0.265,0.481,0.437,0.415,0.219,0.191,northwest,5.4,No
2016/01/22,10:10,0.457,0.267,0.481,0.437,0.415,0.219,0.191,northwest,6.2,No
2016/01/22,10:20,0.456,0.267,0.481,0.436,0.418,0.220,0.191,north-northwest,5.5,No
2016/01/22,10:30,0.456,0.266,0.482,0.438,0.415,0.219,0.191,north-northwest,5.6,No
2016/01/22,10:40,0.459,0.268,0.482,0.437,0.416,0.219,0.191,north-northwest,3.4,No
2016/01/22,10:50,0.456,0.267,0.482,0.437,0.416,0.219,0.192,west-northwest,7.5,No
2016/01/22,11:00,0.457,0.267,0.479,0.439,0.415,0.220,0.191,northwest,7.1,No
2016/01/22,11:10,0.455,0.266,0.481,0.436,0.417,0.219,0.190,northwest,6.0,No
2016/01/22,11:20,0.456,0.268,0.483,0.437,0.417,0.219,0.192,northwest,6.7,No
2016/01/22,11:30,0.458,0.268,0.479,0.437,0.418,0.219,0.192,northwest,8.8,No
2016/01/22,11:40,0.457,0.267,0.483,0.435,0.418,0.220,0.191,northwest,6.7,No
2016/01/22,11:50,0.456,0.266,0.481,0.437,0.418,0.219,0.192,northwest,7.1,No
2016/01/22,12:00,0.460,0.266,0.480,0.435,0.419,0.219,0.191,northwest,7.7,No
2016/01/22,12:10,0.457,0.268,0.481,0.438,0.417,0.220,0.192,northwest,9.8,No
2016/01/22,12:20,0.458,0.267,0.478,0.436,0.420,0.220,0.192,northwest,6.7,No
2016/01/22,12:30,0.458,0.268,0.483,0.438,0.417,0.220,0.191,west-northwest,11.2,No
2016/01/22,12:40,0.456,0.268,0.478,0.438,0.419,0.220,0.192,west-northwest,8.6,No
2016/01/22,12:50,0.457,0.267,0.481,0.438,0.421,0.220,0.192,west-northwest,7.3,No
2016/01/22,13:00,0.457,0.267,0.480,0.437,0.418,0.220,0.193,west-northwest,9.6,No
2016/01/22,13:10,0.459,0.267,0.479,0.436,0.420,0.219,0.193,west-northwest,12.6,No
2016/01/22,13:20,0.461,0.267,0.482,0.439,0.418,0.220,0.191,west-northwest,11.2,No
2016/01/22,13:30,0.456,0.267,0.479,0.435,0.419,0.220,0.192,west-northwest,10.4,No
2016/01/22,13:40,0.458,0.268,0.484,0.438,0.420,0.218,0.192,northwest,10.6,No
2016/01/22,13:50,0.460,0.267,0.480,0.437,0.418,0.217,0.192,west-northwest,9.8,No
2016/01/22,14:00,0.460,0.269,0.482,0.439,0.417,0.217,0.193,west-northwest,8.9,No
2016/01/22,14:10,0.460,0.268,0.481,0.438,0.419,0.218,0.192,west-northwest,7.7,No
2016/01/22,14:20,0.460,0.267,0.480,0.438,0.418,0.218,0.192,west-northwest,8.1,No
2016/01/22,14:30,0.457,0.269,0.485,0.442,0.418,0.217,0.192,northwest,7.6,No
2016/01/22,14:40,0.459,0.268,0.482,0.438,0.419,0.219,0.193,west-northwest,3.7,No
2016/01/22,14:50,0.462,0.268,0.482,0.440,0.418,0.218,0.192,northwest,5.3,No
2016/01/22,15:00,0.459,0.269,0.483,0.440,0.417,0.217,0.191,west-northwest,5.7,No
2016/01/22,15:10,0.459,0.267,0.482,0.438,0.419,0.218,0.194,west-northwest,4.6,No
2016/01/22,15:20,0.461,0.267,0.480,0.440,0.419,0.216,0.192,west,6.0,No
2016/01/22,15:30,0.458,0.269,0.483,0.439,0.417,0.217,0.193,west,8.6,No
2016/01/22,15:40,0.459,0.268,0.482,0.436,0.419,0.217,0.193,west-northwest,8.9,No
2016/01/22,15:50,0.459,0.268,0.481,0.441,0.418,0.221,0.192,west-northwest,9.2,No
2016/01/22,16:00,0.458,0.268,0.484,0.439,0.417,0.219,0.192,west-northwest,7.0,No
2016/01/22,16:10,0.458,0.269,0.483,0.437,0.418,0.218,0.193,west-northwest,7.9,No
2016/01/22,16:20,0.458,0.269,0.481,0.439,0.420,0.220,0.192,west-northwest,8.1,No
2016/01/22,16:30,0.459,0.268,0.482,0.440,0.418,0.218,0.193,west-northwest,2.3,No
2016/01/22,16:40,0.460,0.269,0.484,0.438,0.416,0.220,0.192,west,2.8,No
2016/01/22,16:50,0.459,0.269,0.483,0.439,0.418,0.219,0.192,west-northwest,3.0,No
2016/01/22,17:00,0.459,0.268,0.482,0.439,0.419,0.219,0.192,west-northwest,4.5,No
2016/01/22,17:10,0.458,0.269,0.483,0.440,0.417,0.221,0.193,west-northwest,6.1,No
2016/01/22,17:20,0.458,0.268,0.483,0.437,0.418,0.220,0.191,west-northwest,6.4,No
2016/01/22,17:30,0.457,0.267,0.482,0.439,0.417,0.219,0.192,west-northwest,6.0,No
2016/01/22,17:40,0.459,0.269,0.483,0.439,0.418,0.220,0.192,west-northwest,5.6,No
2016/01/22,17:50,0.458,0.267,0.483,0.438,0.420,0.220,0.192,west-northwest,4.8,No
2016/01/22,18:00,0.458,0.267,0.483,0.438,0.419,0.219,0.192,northwest,6.5,No
2016/01/22,18:10,0.459,0.267,0.483,0.437,0.416,0.220,0.191,west-northwest,5.5,No
2016/01/22,18:20,0.458,0.269,0.483,0.439,0.419,0.219,0.193,west,4.3,No
2016/01/22,18:30,0.458,0.268,0.484,0.439,0.417,0.219,0.193,west,4.7,No
2016/01/22,18:40,0.458,0.268,0.482,0.438,0.419,0.221,0.192,west,5.3,No
2016/01/22,18:50,0.458,0.268,0.483,0.437,0.419,0.220,0.192,west,4.4,No
2016/01/22,19:00,0.456,0.269,0.481,0.440,0.418,0.220,0.192,west,5.0,No
2016/01/22,19:10,0.458,0.267,0.482,0.439,0.419,0.219,0.192,west,3.6,No
2016/01/22,19:20,0.458,0.269,0.483,0.439,0.419,0.218,0.193,west,2.9,No
2016/01/22,19:30,0.456,0.268,0.480,0.437,0.419,0.219,0.192,northwest,3.0,No
2016/01/22,19:40,0.457,0.267,0.482,0.438,0.417,0.220,0.193,west-northwest,3.0,No
2016/01/22,19:50,0.457,0.268,0.484,0.440,0.419,0.220,0.192,northwest,4.9,No
2016/01/22,20:00,0.458,0.268,0.483,0.438,0.417,0.221,0.192,north,4.0,No
2016/01/22,20:10,0.458,0.268,0.480,0.438,0.418,0.219,0.193,north,5.9,No
2016/01/22,20:20,0.456,0.269,0.480,0.440,0.417,0.220,0.193,north-northwest,3.7,No
2016/01/22,20:30,0.457,0.268,0.484,0.440,0.417,0.220,0.192,north-northwest,2.4,No
2016/01/22,20:40,0.459,0.268,0.483,0.440,0.417,0.220,0.192,north-northwest,1.7,No
2016/01/22,20:50,0.457,0.268,0.481,0.437,0.418,0.220,0.192,north,0.9,No
2016/01/22,21:00,0.456,0.268,0.482,0.438,0.418,0.219,0.192,northwest,0.9,No
2016/01/22,21:10,0.459,0.267,0.483,0.440,0.420,0.219,0.192,north-northwest,1.6,No
2016/01/22,21:20,0.458,0.268,0.484,0.440,0.416,0.219,0.192,north-northeast,1.2,No
2016/01/22,21:30,0.459,0.267,0.481,0.439,0.417,0.221,0.193,-,CALM,No
2016/01/22,21:40,0.458,0.267,0.483,0.439,0.416,0.219,0.192,north-northwest,2.5,No
2016/01/22,21:50,0.456,0.268,0.482,0.439,0.417,0.220,0.193,northeast,1.4,No
2016/01/22,22:00,0.459,0.269,0.484,0.440,0.418,0.220,0.193,east,0.8,No
2016/01/22,22:10,0.458,0.268,0.482,0.440,0.416,0.220,0.193,east,2.3,No
2016/01/22,22:20,0.457,0.269,0.483,0.439,0.416,0.220,0.191,northeast,2.3,No
2016/01/22,22:30,0.456,0.267,0.482,0.440,0.417,0.219,0.192,northeast,0.9,No
2016/01/22,22:40,0.456,0.269,0.484,0.439,0.416,0.219,0.193,east-northeast,2.8,No
2016/01/22,22:50,0.457,0.267,0.483,0.439,0.418,0.219,0.192,north-northeast,3.3,No
2016/01/22,23:00,0.457,0.268,0.482,0.440,0.418,0.220,0.193,north,3.5,No
2016/01/22,23:10,0.457,0.267,0.481,0.439,0.417,0.219,0.193,north,1.0,No
2016/01/22,23:20,0.458,0.269,0.481,0.439,0.418,0.219,0.193,east,0.7,No
2016/01/22,23:30,0.456,0.268,0.483,0.439,0.418,0.219,0.192,-,CALM,No
2016/01/22,23:40,0.457,0.268,0.484,0.441,0.417,0.219,0.193,-,CALM,No
2016/01/22,23:50,0.457,0.267,0.482,0.437,0.417,0.221,0.192,north-northwest,1.4,No
